Terminal Aerodrome Forecast
Issued by NWS

Home | Current Version | Previous Version | Text Only | Print | Product List | Glossary Off
Versions: 1 2 3 4 5 6 7 8 9 10 11 12 13 14 15 16 17 18 19 20

000
FTUS43 KBIS 110522
TAFDIK
TAF
KDIK 110522Z 1106/1206 29016KT P6SM SKC WS020/31055KT
     FM110900 30024G35KT P6SM BKN035
     FM111100 31023G34KT P6SM OVC015
     FM111500 31020G29KT P6SM OVC010
     FM120300 30009KT P6SM BKN020=

USA.gov is the U.S. government's official web portal to all federal, state and local government web resources and services.